Location: Warwick
(41.7000°N, 71.4170°W)
Time: 09:07:45
(UTC-05:00)

Hubble Space Telescope - Pass Details

Date: 26 October 2017
Orbit: 537 x 541 km, 28.5° (Epoch: 20 November)

Event Time Altitude Azimuth Distance (km) Brightness Sun altitude
Rises 19:25:14 0° 240° (WSW) 2,673 5.4 -18.8°
Reaches altitude 10° 19:28:42 10° 210° (SSW) 1,781 3.8 -19.4°
Maximum altitude 19:30:24 12° 185° (S) 1,639 3.3 -19.8°
Enters shadow 19:31:38 11° 167° (SSE) 1,714 3.2 -20.0°
